Location: Unspecified
(64.9000°N, 0.0000°E)
Time: 07:56:33
(UTC+00:00)

A-11 Canister half - Pass Details

Date: 19 June 2019
Orbit: 1526 x 1683 km, 47.3° (Epoch: 21 July)

Event Time Altitude Azimuth Distance (km) Brightness Sun altitude
Rises 10:01:44 0° 261° (W) 4,685 11.3 44.2°
Reaches altitude 10° 10:05:39 10° 248° (WSW) 3,697 11.0 44.5°
Maximum altitude 10:12:06 22° 203° (SSW) 2,887 11.1 44.9°
Drops below altitude 10° 10:18:35 10° 158° (SSE) 3,715 12.0 45.3°
Sets 10:22:33 0° 144° (SE) 4,714 12.3 45.5°
